Stations météo

réclame
Mon MeteoGroup
Eskdalemuir, Grande-Bretagne (3162): Température de l'air & dewpoint: 13.11.2017 17:00:00 - 19.11.2017 17:00:00 (GMT)Eskdalemuir, Grande-Bretagne (3162): Vitesse du vent & gusts: 13.11.2017 17:00:00 - 19.11.2017 17:00:00 (GMT)Eskdalemuir, Grande-Bretagne (3162): Direction du vent: 13.11.2017 17:00:00 - 19.11.2017 17:00:00 (GMT)Eskdalemuir, Grande-Bretagne (3162): reduced air pressure: 13.11.2017 17:00:00 - 19.11.2017 17:00:00 (GMT)Eskdalemuir, Grande-Bretagne (3162): visibility: 13.11.2017 17:00:00 - 19.11.2017 17:00:00 (GMT)Eskdalemuir, Grande-Bretagne (3162): Ensoleillement: 13.11.2017 17:00:00 - 19.11.2017 17:00:00 (GMT)Eskdalemuir, Grande-Bretagne (3162): Quantités de précipitations: 13.11.2017 17:00:00 - 19.11.2017 17:00:00 (GMT)
Date & Time tt [°C] td [°C] ff [km/h] ff [knt] fx [km/h] fx [knt] dd ppp [hPa] vv [km] sd [min] rr [mm]
19.11.2017 17:00:00 1,4 0,3 0 0 - - N 1021,7 30 0 0,0
19.11.2017 16:00:00 1,8 0,4 0 0 - - N 1022,1 35 0 0,0
19.11.2017 15:00:00 2,3 0,4 4 2 - - SE 1022,2 40 0 0,0
19.11.2017 14:00:00 2,2 0,1 5 3 - - SSE 1022,8 50 0 0,0
19.11.2017 13:00:00 2,4 0,0 4 2 - - SSE 1023,1 35 0 0,0
19.11.2017 12:00:00 2,5 -0,4 5 3 - - SSE 1023,4 30 48 0,0
19.11.2017 11:00:00 1,5 -3,0 2 1 - - E 1023,7 45 60 0,0
19.11.2017 10:00:00 -0,1 -3,0 2 1 - - SSE 1023,7 35 60 0,0
19.11.2017 09:00:00 -1,3 -2,5 4 2 - - SSW 1023,6 40 30 0,0
19.11.2017 08:00:00 -1,9 -3,7 2 1 - - SW 1023,4 45 0 0,0
19.11.2017 07:00:00 -1,7 -2,9 8 4 - - ESE 1023,1 30 0 0,0
19.11.2017 06:00:00 0,1 -2,3 5 3 - - NNW 1022,9 45 0 0,0
19.11.2017 05:00:00 -0,1 -2,4 4 2 - - NNW 1022,7 35 0 0,0
19.11.2017 04:00:00 0,6 -1,6 16 9 - - NW 1022,4 45 0 0,0
19.11.2017 03:00:00 0,2 -2,9 16 9 - - WNW 1022,5 30 0 0,0
19.11.2017 02:00:00 1,9 -2,1 8 4 - - NNE 1022,1 40 0 0,0
19.11.2017 01:00:00 0,7 -2,7 8 4 - - E 1022,2 30 0 0,0
19.11.2017 00:00:00 -0,2 -2,5 4 2 - - E 1022,1 30 - 0,0
18.11.2017 23:00:00 0,7 -2,2 5 3 - - S 1021,5 40 0 0,0
18.11.2017 22:00:00 0,5 -1,8 9 5 - - ENE 1021,0 40 0 0,0
18.11.2017 21:00:00 0,3 -2,4 8 4 - - E 1021,1 30 0 0,0
18.11.2017 20:00:00 0,4 -2,2 5 3 - - S 1021,0 40 0 0,0
18.11.2017 19:00:00 2,3 -2,0 8 4 - - SSW 1020,4 45 0 0,0
18.11.2017 18:00:00 2,1 -0,7 21 11 - - WNW 1019,8 45 0 0,0
18.11.2017 17:00:00 2,2 -0,5 15 8 - - WNW 1019,7 50 0 0,0
18.11.2017 16:00:00 3,1 -0,8 18 10 - - WNW 1019,5 35 24 0,0
18.11.2017 15:00:00 3,8 -0,6 15 8 - - WNW 1019,6 40 18 0,0
18.11.2017 14:00:00 5,4 0,4 15 8 - - WNW 1019,5 40 36 0,0
18.11.2017 13:00:00 5,4 0,0 21 11 - - WNW 1019,6 40 60 0,0
18.11.2017 12:00:00 4,2 0,0 15 8 - - NW 1019,5 40 6 0,0
18.11.2017 11:00:00 4,2 0,5 9 5 - - WNW 1019,8 30 18 0,0
18.11.2017 10:00:00 5,3 1,3 4 2 - - W 1019,5 25 54 0,0
18.11.2017 09:00:00 4,2 0,3 5 3 - - NW 1019,6 30 12 0,0
18.11.2017 08:00:00 3,6 1,3 5 3 - - WNW 1019,5 40 0 0,0
18.11.2017 07:00:00 4,7 1,3 22 12 - - WNW 1018,5 40 0 0,0
18.11.2017 06:00:00 5,0 1,9 18 10 - - WNW 1017,7 30 0 0,0
18.11.2017 05:00:00 5,2 3,0 21 11 - - WNW 1017,8 50 0 0,6
18.11.2017 04:00:00 5,4 3,4 24 13 - - W 1017,8 30 0 0,6
18.11.2017 03:00:00 5,5 2,7 21 11 - - W 1018,0 21 0 0,0
18.11.2017 02:00:00 5,8 2,7 28 15 - - W 1018,1 30 0 0,2
18.11.2017 01:00:00 5,7 4,2 16 9 - - W 1018,7 7 0 0,2
18.11.2017 00:00:00 5,9 3,8 24 13 - - WSW 1019,1 21 - -
17.11.2017 23:00:00 5,8 3,8 24 13 - - W 1019,6 45 0 0,2
17.11.2017 22:00:00 5,7 3,9 22 12 - - WSW 1020,1 13 0 0,0
17.11.2017 21:00:00 5,4 4,0 22 12 - - WSW 1020,6 35 0 0,4
17.11.2017 20:00:00 5,1 4,2 21 11 - - SW 1021,1 8 0 0,6
17.11.2017 19:00:00 5,2 4,0 22 12 - - SW 1021,6 12 0 0,2
17.11.2017 18:00:00 5,1 3,8 21 11 - - SW 1022,2 13 0 0,4
17.11.2017 17:00:00 5,3 3,9 21 11 - - WSW 1022,6 6 0 0,4
17.11.2017 16:00:00 5,4 3,9 24 13 - - SW 1022,9 18 0 0,0
17.11.2017 15:00:00 5,5 3,9 18 10 - - SW 1023,5 18 0 0,0
17.11.2017 14:00:00 5,5 3,8 21 11 - - SW 1023,9 30 0 0,0
17.11.2017 13:00:00 5,2 3,8 24 13 - - SW 1024,3 8 0 0,0
17.11.2017 12:00:00 5,0 3,7 18 10 - - SW 1024,9 12 0 0,2
17.11.2017 11:00:00 4,3 3,3 15 8 - - SSW 1026,1 9 0 0,0
17.11.2017 10:00:00 3,4 2,7 15 8 - - S 1026,4 10 0 0,2
17.11.2017 09:00:00 2,5 2,0 9 5 - - SSE 1026,7 6 0 0,0
17.11.2017 08:00:00 2,4 1,9 13 7 - - S 1026,8 8 0 0,2
17.11.2017 07:00:00 2,0 1,5 5 3 - - SE 1026,5 9 0 0,0
17.11.2017 06:00:00 1,5 1,0 5 3 - - S 1026,7 6 0 0,0
17.11.2017 05:00:00 1,1 0,3 8 4 - - S 1026,9 12 0 0,0
17.11.2017 04:00:00 0,6 0,2 11 6 - - SSW 1026,9 22 0 0,0
17.11.2017 03:00:00 -1,0 -1,4 11 6 - - SW 1027,3 15 0 0,0
17.11.2017 02:00:00 -0,8 -1,2 5 3 - - SSW 1027,5 17 0 -
17.11.2017 01:00:00 -0,2 -0,6 5 3 - - SW 1027,4 17 0 0,0
17.11.2017 00:00:00 0,1 -0,4 13 7 - - SW 1027,2 25 - -
16.11.2017 23:00:00 -0,1 -0,4 9 5 - - SW 1027,0 24 0 0,0
16.11.2017 22:00:00 -0,7 -1,1 4 2 - - SW 1026,9 26 0 0,0
16.11.2017 21:00:00 0,0 -0,7 4 2 - - S 1026,3 28 0 0,0
16.11.2017 20:00:00 -0,2 -0,9 4 2 - - SE 1025,7 25 0 0,0
16.11.2017 19:00:00 1,2 0,1 2 1 - - S 1025,2 27 0 0,0
16.11.2017 18:00:00 1,5 -0,1 8 4 - - WSW 1024,6 30 0 0,0
16.11.2017 17:00:00 3,0 1,0 8 4 - - S 1023,6 30 0 0,0
16.11.2017 16:00:00 4,9 0,1 13 7 - - W 1022,7 40 24 0,0
16.11.2017 15:00:00 6,0 0,0 11 6 - - WSW 1021,9 35 36 0,0
16.11.2017 14:00:00 6,5 0,2 13 7 - - WNW 1020,8 35 60 0,0
16.11.2017 13:00:00 6,8 0,8 9 5 - - W 1019,9 30 42 0,0
16.11.2017 12:00:00 6,4 1,8 15 8 - - WNW 1019,1 18 24 0,0
16.11.2017 11:00:00 6,2 1,2 8 4 - - NW 1018,4 30 48 0,0
16.11.2017 10:00:00 6,1 2,0 26 14 54 29 W 1016,6 25 42 0,2
16.11.2017 09:00:00 5,7 3,0 35 19 52 28 WNW 1015,7 25 6 0,4
16.11.2017 08:00:00 6,9 5,5 29 16 50 27 W 1014,3 3,5 0 1,2
16.11.2017 07:00:00 6,8 5,2 21 11 55 30 W 1012,7 12 0 3,2
16.11.2017 06:00:00 8,5 7,1 26 14 55 30 SW 1012,2 3,5 0 0,2
16.11.2017 05:00:00 8,9 7,7 35 19 59 32 SSW 1012,3 35 0 0,0
16.11.2017 04:00:00 9,1 7,8 34 18 52 28 SSW 1013,1 14 0 0,0
16.11.2017 03:00:00 9,2 8,4 21 11 - - SSW 1013,8 26 0 0,6
16.11.2017 02:00:00 9,0 8,1 28 15 - - SSW 1015,0 8 0 -
16.11.2017 01:00:00 8,3 8,1 24 13 - - SSW 1015,9 4,4 0 0,0
16.11.2017 00:00:00 7,4 7,1 15 8 - - S 1016,9 0,4 - -
15.11.2017 23:00:00 6,4 5,8 9 5 - - S 1018,0 4,8 0 0,0
15.11.2017 22:00:00 4,7 4,4 5 3 - - S 1018,8 8 0 0,0
15.11.2017 21:00:00 4,3 4,0 2 1 - - NNW 1020,1 5 0 0,0
15.11.2017 20:00:00 3,7 3,4 0 0 - - N 1020,7 6 0 0,0
15.11.2017 19:00:00 3,3 3,1 0 0 - - N 1021,3 8 0 0,0
15.11.2017 18:00:00 3,4 3,3 0 0 - - N 1021,4 0,2 0 0,0
15.11.2017 17:00:00 3,7 3,4 2 1 - - SW 1021,7 0,5 0 0,0
15.11.2017 16:00:00 4,7 4,2 0 0 - - N 1022,4 6 0 0,0
15.11.2017 15:00:00 4,9 4,5 0 0 - - N 1022,9 4,0 0 0,0
15.11.2017 14:00:00 4,4 4,2 0 0 - - N 1023,6 15 0 0,0
15.11.2017 13:00:00 3,5 3,1 0 0 - - N 1024,3 12 0 0,0
15.11.2017 12:00:00 2,7 2,3 0 0 - - N 1024,8 8 0 0,0
15.11.2017 11:00:00 1,2 -1,1 0 0 - - N 1025,2 25 0 0,0
15.11.2017 10:00:00 0,1 -0,9 0 0 - - N 1025,3 12 0 0,0
15.11.2017 09:00:00 -0,7 -1,1 4 2 - - NNW 1025,2 35 0 0,0
15.11.2017 08:00:00 -1,3 -1,9 0 0 - - N 1025,3 20 0 0,0
15.11.2017 07:00:00 -0,8 -1,0 2 1 - - N 1024,6 30 0 0,0
15.11.2017 06:00:00 -1,1 -1,2 5 3 - - N 1024,6 19 0 0,0
15.11.2017 05:00:00 -1,3 -1,5 0 0 - - N 1024,4 8 0 0,0
15.11.2017 04:00:00 -1,1 -1,3 0 0 - - N 1024,1 0,3 0 0,0
15.11.2017 03:00:00 -0,1 -0,2 4 2 - - NNW 1023,6 2,2 0 0,0
15.11.2017 02:00:00 0,0 -0,2 0 0 - - N 1023,4 9 0 0,0
15.11.2017 01:00:00 0,7 0,4 2 1 - - E 1023,0 0,5 0 0,0
15.11.2017 00:00:00 1,5 1,3 4 2 - - E 1022,3 24 - 0,0
14.11.2017 23:00:00 2,5 2,4 5 3 - - SW 1021,7 40 0 0,0
14.11.2017 22:00:00 4,1 3,5 2 1 - - NNW 1021,1 40 0 0,0
14.11.2017 21:00:00 5,3 4,5 8 4 - - WNW 1020,5 50 0 0,0
14.11.2017 20:00:00 5,2 4,5 8 4 - - WNW 1020,4 50 0 0,0
14.11.2017 19:00:00 7,0 5,9 5 3 - - WSW 1019,9 45 0 0,0
14.11.2017 18:00:00 7,6 6,6 5 3 - - SW 1019,4 30 0 0,0
14.11.2017 17:00:00 8,0 6,6 4 2 - - W 1019,2 25 0 -
14.11.2017 16:00:00 8,5 6,8 9 5 - - SSW 1019,2 14 0 0,0
14.11.2017 15:00:00 9,1 7,2 9 5 - - SSW 1019,0 22 0 0,0
14.11.2017 14:00:00 9,5 6,5 13 7 - - SW 1019,0 25 0 0,0
14.11.2017 13:00:00 9,7 6,0 9 5 - - WSW 1018,9 30 24 0,0
14.11.2017 12:00:00 9,2 6,2 9 5 - - W 1019,4 25 6 0,0
14.11.2017 11:00:00 8,9 6,7 5 3 - - S 1019,4 25 6 0,0
14.11.2017 10:00:00 7,2 6,5 4 2 - - E 1018,9 40 6 0,0
14.11.2017 09:00:00 7,1 6,3 4 2 - - SSE 1018,5 40 18 0,0
14.11.2017 08:00:00 6,3 5,5 15 8 - - WNW 1017,9 40 0 0,0
14.11.2017 07:00:00 8,6 7,9 4 2 - - WSW 1017,2 50 0 0,0
14.11.2017 06:00:00 8,9 8,4 11 6 - - W 1016,5 4,6 0 0,6
14.11.2017 05:00:00 9,0 8,6 5 3 - - SW 1016,1 2,2 0 0,2
14.11.2017 04:00:00 8,5 8,1 9 5 - - S 1015,9 3,4 0 0,2
14.11.2017 03:00:00 8,3 7,9 13 7 - - SSW 1015,8 4,8 0 0,4
14.11.2017 02:00:00 8,0 7,5 9 5 - - SSW 1015,9 5 0 0,2
14.11.2017 01:00:00 7,8 7,2 18 10 - - SW 1016,2 4,2 0 0,2
14.11.2017 00:00:00 7,5 6,9 15 8 - - SW 1016,4 5 - 0,2
13.11.2017 23:00:00 7,3 6,7 18 10 - - SW 1016,7 3,4 0 0,0
13.11.2017 22:00:00 7,1 6,5 11 6 - - S 1017,3 2,8 0 0,4
13.11.2017 21:00:00 7,0 6,4 24 13 - - SW 1018,1 2,4 0 0,6
13.11.2017 20:00:00 5,9 5,5 13 7 - - S 1018,8 2,8 0 1,2
13.11.2017 19:00:00 5,3 4,7 13 7 - - S 1019,8 3,3 0 0,4
13.11.2017 18:00:00 5,0 2,9 18 10 - - SSW 1020,5 7 0 0,0
13.11.2017 17:00:00 3,7 1,5 9 5 - - S 1021,1 35 0 0,0

tt = Température de l'air
td = dewpoint
ff = Vitesse du vent
fx = gusts
dd = Direction du vent
ppp = reduced air pressure
vv = visibility
sd = Ensoleillement
rr = Quantités de précipitations

stations d'obs. à proximité